Location: Arroyo Retuerta
(40.5469°N, 4.3534°W)
Time: 05:40:12
(UTC+00:00)

Cosmos 1726 - Pass Details

Date: 01 June 2020
Orbit: 483 x 498 km, 82.5° (Epoch: 05 July)

Event Time Altitude Azimuth Distance (km) Brightness Sun altitude
Rises 23:02:37 0° 359° (N) 2,587 7.0 -25.0°
Reaches altitude 10° 23:04:48 10° 6° (N) 1,702 5.7 -25.1°
Enters shadow 23:07:18 33° 36° (NE) 849 3.5 -25.3°
